Regional Weather Roundup
Issued by NWS Northern Indiana

Home | Current Version | Previous Version | Graphics & Text | Print | Product List | Glossary On
Versions: 1 2 3 4 5 6 7 8 9 10 11 12 13 14 15 16 17 18 19 20 21 22 23 24 25 26 27 28 29 30 31 32 33 34 35 36 37 38 39 40 41 42 43 44 45 46 47 48 49 50
000
ASUS43 KIWX 271710
RWRIWX

KIWX WEATHER ROUNDUP
NATIONAL WEATHER SERVICE NORTHERN INDIANA
100 PM EDT SAT AUG 27 2016

NOTE: "FAIR" INDICATES FEW OR NO CLOUDS BELOW 12,000 FEET WITH NO
SIGNIFICANT WEATHER AND/OR OBSTRUCTIONS TO VISIBILITY.

* THESE STATIONS ARE NOT UNDER NWS QUALITY CONTROL. THEY ALSO MAY NOT
  REPORT WEATHER SUCH AS PRECIPITATION OR FOG.

INZ001>027-271800-
NORTHERN INDIANA

CITY           SKY/WX    TMP DP  RH WIND       PRES   REMARKS
GARY*          PTSUNNY   79  73  83 S9        30.07S
VALPARAISO     CLOUDY    78  71  79 SE12      30.09S
MICHIGAN CITY* PTSUNNY   77  75  94 MISG      30.08F
LAPORTE*       PTSUNNY   78  78 100 S5        30.10S
KNOX*          CLOUDY    73  61  64 SE9       30.08S
SOUTH BEND     CLOUDY    73  72  96 SE9       30.09F
ELKHART*       CLOUDY    72  70  94 SE10      30.09F
GOSHEN         LGT RAIN  72  69  90 SE9       30.10F
MONTICELLO*    MOSUNNY   78  68  72 S7        30.08F
LOGANSPORT*    CLOUDY    73  72  94 SE9       30.11F
ROCHESTER*     CLOUDY    79  73  83 SE7       30.10F
WARSAW*        CLOUDY    73  73 100 SE6       30.10F
ANGOLA*        PTSUNNY   70  61  73 CALM      30.13F
FORT WAYNE     CLOUDY    78  69  73 NW6       30.11F
HUNTINGTON*    CLOUDY    74  71  90 CALM      30.11F
PERU/GRISSOM   MOSUNNY   75  73  93 SE6       30.10F
MARION*        MOSUNNY   75  70  83 CALM      30.13F

$$
INZ028>050-271800-
CENTRAL INDIANA

CITY           SKY/WX    TMP DP  RH WIND       PRES   REMARKS
LAFAYETTE      CLOUDY    78  74  87 SE8       30.09S
KOKOMO*        PTSUNNY   75  72  88 S6        30.11F
MUNCIE*        CLOUDY    77  73  87 W6        30.14S
INDIANAPOLIS   RAIN      74  72  93 S7        30.13F FOG

$$
MIZ043>046-050>051-056>058-064>065-071>073-077>080-271800-
SOUTHWEST LOWER MICHIGAN

CITY           SKY/WX    TMP DP  RH WIND       PRES   REMARKS
BATTLE CREEK   RAIN      64  64 100 E9        30.14F FOG
BENTON HARBOR  CLOUDY    76  71  85 SE10      30.06F
COLDWATER*     RAIN      67  67 100 NE3       30.14F
HILLSDALE*     CLOUDY    69  67  91 CALM      30.14S
HOLLAND        CLOUDY    74  69  85 SE13      30.07F
GRAND RAPIDS   CLOUDY    69  65  86 SE13      30.08F
KALAMAZOO      LGT RAIN  67  64  90 E7        30.10F FOG
STURGIS*       RAIN      68  67  95 E6        30.11F
THREE RIVERS*  LGT RAIN  68  68 100 E9        30.10F

$$
OHZ001>008-015>018-024>025-271800-
NORTHWEST OHIO

CITY           SKY/WX    TMP DP  RH WIND       PRES   REMARKS
WAUSEON*       PTSUNNY   82  73  74 S7G14     30.09F
DEFIANCE       CLOUDY    82  72  71 NW13G20   30.09F
FINDLAY        SUNNY     88  71  57 S16       30.09F
TOLEDO EXPRESS PTSUNNY   85  73  67 SE5       30.08F
TOLEDO METCALF PTSUNNY   86  73  65 S13       30.10F
LIMA           SUNNY     87  75  67 S14       30.10F HX  96

$$
AND FOR LAKE MICHIGAN COASTAL AND OPEN LAKE BUOY OBSERVATIONS

STATION/POSITION TEMP    WIND        PRES    VSBY  WAVE
                 AIR SEA DIR/SP/G                  HT/PER
                 (F)     (DEG/KT/KT) (MB)    (MI)  (FT/S)
CALUMET HARBOR    75     160/  7/ 10 1017.4R
MICHIGAN CITY     74     120/ 10/ 12   N/A
BURNS HARBOR      77     150/  8/ 15 1018.6S
SAINT JOSEPH      77     190/  4/  8 1018.6R
SOUTH LAKE BUOY   73 74  150/ 10/ 12 1016.9R         2/ 4
4 MI NW BRIDGMAN  74 75  140/ 12/ 14 1017.8F         1/ 2
MICHIGAN CITY     75 75  160/ 12/ 16   N/A           1/ 3

$$
&&




USA.gov is the U.S. government's official web portal to all federal, state and local government web resources and services.